ALOS-2 (39766 NORAD) Tracking and Keplerian Element Data

This shows tracking and keplerian element data for the satellite.

Feedback or suggestion? Click here.




ElementValue
Catalog39766
NameALOS-2
Epoch Orbit52056
Epoch Day12.87831925
Epoch Year2024
RAAN111.772
Inclination97.9214
Eccentricity0.0001377
Argument of Perigee100.9523
Mean Anonmoly259.1844
Mean Motion14.79475298
Decay Rate1.006E-05
L11 39766U 14029A 24012.87831925 .00001006 00000+0 14162-3 0 9992
L22 39766 97.9214 111.7720 0001377 100.9523 259.1844 14.79475298520569



Live tracking and technical data element details for ALOS-2 (NORAD 39766). ALOS-2 can be tracked NOW for your location showing map with azimuth and elevation plus other details from your city location.







IsCatalogInMostPopularTable: catalog: 39766, numindb: 507
Update: records affected: 1



GetName: 39766 ALOS-2

Hit Count: updated at: Fri, 19 Apr 2024 11:48:38 GMT